Date String (YYYY-MM-DD hh:mm:ss) UTC,Instrument flags,Ambient pressure (hPa),Sample flow (lpm),Bypass flow (lpm),Sample temperature (°C),Ambient temperature (°C),ASC tube jacket temperature (°C),LED temperature (°C),Box temperature (°C),Sample RH (%),Span deviation,Mass concentration (μg/m³),Mass concentration (μg/m³),Mass concentration (μg/m³)
DateTimeUTC,F1_M11,P_M11,Q1_M11,Q2_M11,T1_M11,T2_M11,T3_M11,T4_M11,T5_M11,U1_M11,ZSPAN_M11,X2_M11,X0_M11,X1_M11
2021-12-07 06:00:00,,0817.8,5.00,0.00,22.4,23.0,00.0,31.3,24.3,08.7,0000.0,0003.65,0016.28,0001.69
2021-12-07 06:01:00,,0817.9,4.99,0.00,22.4,22.6,00.0,31.3,24.1,08.8,0000.0,0003.95,0017.20,0001.97
2021-12-07 06:02:00,,0817.9,5.01,0.00,22.3,22.3,00.0,31.3,23.9,08.6,0000.0,0004.29,0018.05,0002.26
2021-12-07 06:03:00,,0818.0,5.01,0.00,22.2,22.0,00.0,31.3,23.8,08.5,0000.0,0004.61,0018.45,0002.61
2021-12-07 06:04:00,,0817.9,4.98,0.00,22.1,21.7,00.0,31.2,23.7,08.4,0000.0,0004.94,0017.56,0002.94
2021-12-07 06:05:00,,0817.7,5.01,0.00,22.0,21.4,00.0,31.2,23.5,08.4,0000.0,0005.24,0016.84,0003.20
2021-12-07 06:06:00,,0817.8,5.01,0.00,22.0,21.3,00.0,31.2,23.4,08.5,0000.0,0005.61,0018.09,0003.41
2021-12-07 06:07:00,,0817.6,4.99,0.00,21.9,21.2,00.0,31.2,23.4,08.9,0000.0,0005.97,0019.74,0003.57
2021-12-07 06:08:00,,0817.8,5.02,0.00,21.9,21.1,00.0,31.1,23.4,09.3,0000.0,0006.06,0020.13,0003.66
2021-12-07 06:09:00,,0817.8,4.99,0.00,21.9,21.1,00.0,31.1,23.4,09.0,0000.0,0006.13,0020.31,0003.75
2021-12-07 06:10:00,,0818.0,5.01,0.00,21.8,21.0,00.0,31.1,23.3,08.6,0000.0,0006.26,0022.32,0003.83
2021-12-07 06:11:00,,0818.0,4.99,0.00,21.7,20.9,00.0,31.0,23.2,08.5,0000.0,0006.37,0026.57,0003.82
2021-12-07 06:12:00,,0817.9,5.00,0.00,21.7,21.0,00.0,31.0,23.1,08.5,0000.0,0006.40,0027.36,0003.81
2021-12-07 06:13:00,,0817.9,5.00,0.00,21.8,21.7,00.0,31.0,23.4,08.5,0000.0,0006.47,0028.36,0003.82
2021-12-07 06:14:00,,0818.0,5.00,0.00,21.9,22.5,00.0,31.0,23.8,08.5,0000.0,0006.55,0030.08,0003.82
2021-12-07 06:15:00,,0817.3,5.01,0.00,22.1,23.1,00.0,31.1,24.1,08.4,0000.0,0006.58,0030.02,0003.82
2021-12-07 06:16:00,,0817.6,5.00,0.00,22.2,22.9,00.0,31.1,24.1,09.5,0000.0,0006.46,0031.93,0003.71
2021-12-07 06:17:00,,0817.7,4.99,0.00,22.2,22.5,00.0,31.1,24.0,08.8,0000.0,0006.31,0033.37,0003.63
2021-12-07 06:18:00,,0817.6,5.00,0.00,22.1,22.2,00.0,31.1,23.7,08.7,0000.0,0006.37,0034.04,0003.62
2021-12-07 06:19:00,,0817.5,5.01,0.00,22.0,21.9,00.0,31.1,23.6,08.5,0000.0,0006.58,0035.52,0003.68
2021-12-07 06:20:00,,0817.6,4.99,0.00,22.0,21.7,00.0,31.1,23.6,08.8,0000.0,0006.72,0036.00,0003.70
2021-12-07 06:21:00,,0817.6,5.00,0.00,22.0,21.6,00.0,31.1,23.6,09.2,0000.0,0006.55,0033.89,0003.62
2021-12-07 06:22:00,,0817.7,5.00,0.00,22.0,21.5,00.0,31.1,23.6,09.2,0000.0,0006.21,0029.42,0003.49
2021-12-07 06:23:00,,0818.0,5.00,0.00,21.9,21.4,00.0,31.1,23.5,09.1,0000.0,0006.04,0028.46,0003.39
2021-12-07 06:24:00,,0817.6,5.01,0.00,21.9,21.3,00.0,31.0,23.4,08.7,0000.0,0006.02,0028.03,0003.35
2021-12-07 06:25:00,,0817.5,4.99,0.00,21.8,21.1,00.0,31.0,23.3,08.7,0000.0,0006.03,0026.98,0003.33
2021-12-07 06:26:00,,0817.5,5.00,0.00,21.7,21.0,00.0,31.0,23.2,09.0,0000.0,0005.95,0027.40,0003.28
2021-12-07 06:27:00,,0817.5,5.00,0.00,21.7,20.9,00.0,30.9,23.1,09.0,0000.0,0005.96,0026.63,0003.27
2021-12-07 06:28:00,,0817.5,4.99,0.00,21.6,20.7,00.0,30.9,23.0,09.2,0000.0,0006.00,0024.76,0003.31
2021-12-07 06:29:00,,0817.4,5.00,0.00,21.6,21.2,00.0,30.9,23.2,09.0,0000.0,0005.86,0023.45,0003.26
2021-12-07 06:30:00,,0817.5,5.00,0.00,21.8,22.1,00.0,30.9,23.5,08.8,0000.0,0005.79,0022.86,0003.25
2021-12-07 06:31:00,,0817.4,5.01,0.00,21.9,22.9,00.0,31.0,23.9,08.8,0000.0,0005.76,0023.03,0003.27
2021-12-07 06:32:00,,0817.5,5.00,0.00,22.0,22.7,00.0,31.0,23.9,09.0,0000.0,0005.78,0023.50,0003.29
2021-12-07 06:33:00,,0817.4,4.99,0.00,22.0,22.3,00.0,31.0,23.8,08.7,0000.0,0005.99,0024.44,0003.37
2021-12-07 06:34:00,,0817.3,5.00,0.00,21.9,21.9,00.0,31.0,23.6,09.0,0000.0,0006.10,0024.13,0003.42
2021-12-07 06:35:00,,0817.5,5.00,0.00,21.9,21.6,00.0,31.0,23.4,09.0,0000.0,0005.92,0023.26,0003.39
2021-12-07 06:36:00,,0817.4,5.00,0.00,21.8,21.3,00.0,30.9,23.2,08.8,0000.0,0005.85,0022.20,0003.39
2021-12-07 06:37:00,,0817.5,4.98,0.00,21.7,21.1,00.0,30.9,23.1,08.8,0000.0,0005.89,0022.31,0003.44
2021-12-07 06:38:00,,0817.4,5.01,0.00,21.6,21.0,00.0,30.9,23.0,08.9,0000.0,0005.94,0021.66,0003.46
2021-12-07 06:39:00,,0817.4,5.00,0.00,21.6,20.9,00.0,30.8,23.0,09.2,0000.0,0006.04,0022.45,0003.49
2021-12-07 06:40:00,,0817.3,5.00,0.00,21.5,20.8,00.0,30.8,23.0,09.7,0000.0,0005.94,0021.75,0003.43
2021-12-07 06:41:00,,0817.3,5.00,0.00,21.5,20.8,00.0,30.8,23.0,09.8,0000.0,0005.71,0020.57,0003.32
2021-12-07 06:42:00,,0817.4,5.00,0.00,21.5,20.7,00.0,30.8,23.0,09.9,0000.0,0005.45,0020.08,0003.19
2021-12-07 06:43:00,,0817.5,5.00,0.00,21.5,21.0,00.0,30.8,23.1,09.8,0000.0,0005.40,0019.61,0003.14
2021-12-07 06:44:00,,0817.5,5.00,0.00,21.6,21.8,00.0,30.8,23.4,09.4,0000.0,0005.30,0018.38,0003.05
2021-12-07 06:45:00,,0817.5,5.00,0.00,21.8,22.7,00.0,30.8,23.7,09.3,0000.0,0005.19,0018.46,0002.99
2021-12-07 06:46:00,,0817.5,4.99,0.00,21.9,22.8,00.0,30.9,23.9,09.0,0000.0,0005.17,0020.87,0002.99
2021-12-07 06:47:00,,0817.6,5.02,0.00,21.9,22.5,00.0,30.9,23.7,08.9,0000.0,0005.07,0021.65,0002.91
2021-12-07 06:48:00,,0817.6,4.99,0.00,21.9,22.1,00.0,30.9,23.5,09.0,0000.0,0005.02,0022.04,0002.84
2021-12-07 06:49:00,,0817.7,5.01,0.00,21.8,21.8,00.0,30.9,23.3,09.0,0000.0,0004.92,0022.90,0002.82
2021-12-07 06:50:00,,0817.6,4.99,0.00,21.7,21.5,00.0,30.8,23.2,09.0,0000.0,0004.88,0024.30,0002.82
2021-12-07 06:51:00,,0817.4,5.00,0.00,21.7,21.3,00.0,30.8,23.1,09.1,0000.0,0005.07,0025.08,0002.97
2021-12-07 06:52:00,,0817.6,4.99,0.00,21.6,21.0,00.0,30.8,23.1,09.2,0000.0,0005.23,0025.14,0003.12
2021-12-07 06:53:00,,0817.7,5.01,0.00,21.5,20.8,00.0,30.8,22.9,09.2,0000.0,0005.49,0024.75,0003.22
2021-12-07 06:54:00,,0817.6,4.99,0.00,21.5,20.7,00.0,30.7,22.9,09.2,0000.0,0005.72,0025.73,0003.32
2021-12-07 06:55:00,,0817.6,5.03,0.00,21.4,20.6,00.0,30.7,22.8,09.2,0000.7,0005.79,0026.31,0003.36
2021-12-07 06:56:00,,0817.6,4.99,0.00,21.3,20.6,00.0,30.7,22.8,09.2,0004.6,0005.85,0026.50,0003.40
2021-12-07 06:57:00,,0817.6,5.00,0.00,21.4,21.3,00.0,30.7,23.0,09.3,0003.7,0005.94,0024.03,0003.43
2021-12-07 06:58:00,,0817.7,5.00,0.00,21.6,22.3,00.0,30.7,23.4,09.2,0003.7,0005.96,0022.76,0003.43
2021-12-07 06:59:00,,0817.5,5.01,0.00,21.8,22.9,00.0,30.8,23.7,09.2,0001.6,0005.93,0021.66,0003.42
